This demonstration page uses our WeatherBlox Daily Observations layout. Learn more.

Hourly Observations for November 9, 2016

Temp ( °F °C ) Dew Point ( °F °C ) Humidity (%) Winds ( mph kmh ) Pressure ( in mb ) Visibility ( mi km ) Precip ( " mm )
12:15 am 00:15 Mostly Cloudy 55 13 45 7 67 67 WSW 5 7 29.97 1015 10 16.09344 0 0
12:35 am 00:35 Partly Cloudy 57 14 43 6 59 59 WSW 6 9 29.97 1015 10 16.09344 0 0
12:55 am 00:55 Mostly Cloudy 57 14 43 6 59 59 Calm 29.94 1014 10 16.09344 0 0
1:15 am 01:15 Cloudy 57 14 43 6 59 59 Calm 29.94 1014 10 16.09344 0 0
1:35 am 01:35 Mostly Cloudy 57 14 43 6 59 59 Calm 29.94 1014 10 16.09344 0 0
1:55 am 01:55 Mostly Cloudy 57 14 45 7 63 63 WNW 5 7 29.94 1014 10 16.09344 0 0
2:15 am 02:15 Partly Cloudy 59 15 45 7 59 59 NW 7 11 29.94 1014 10 16.09344 0 0
2:35 am 02:35 Mostly Cloudy 59 15 46 8 63 63 NW 7 11 29.94 1014 10 16.09344 0 0
2:55 am 02:55 Cloudy 61 16 48 9 63 63 NW 9 15 29.94 1014 10 16.09344 0 0
3:15 am 03:15 Mostly Cloudy with Light Rain 59 15 50 10 72 72 WNW 6 9 29.91 1013 10 16.09344 0 0
3:35 am 03:35 Mostly Cloudy 55 13 52 11 88 88 W 5 7 29.91 1013 10 16.09344 0 0
3:55 am 03:55 Cloudy with Light Drizzle 55 13 52 11 88 88 W 6 9 29.91 1013 10 16.09344 0 0
4:15 am 04:15 Cloudy with Light Rain 55 13 52 11 88 88 WNW 3 6 29.91 1013 10 16.09344 0 0
4:35 am 04:35 Cloudy with Light Rain 55 13 52 11 88 88 W 5 7 29.91 1013 10 16.09344 0 0
4:55 am 04:55 Cloudy with Light Rain 54 12 54 12 100 100 W 3 6 29.91 1013 10 16.09344 0 0
5:15 am 05:15 Cloudy with Light Rain 54 12 54 12 100 100 Calm 29.91 1013 7 11.265408 0 0
5:35 am 05:35 Cloudy with Light Rain 54 12 54 12 100 100 Calm 29.91 1013 7 11.265408 0 0
5:55 am 05:55 Cloudy with Light Rain 54 12 54 12 100 100 Calm 29.91 1013 7 11.265408 0 0
6:15 am 06:15 Cloudy with Rain 54 12 54 12 100 100 Calm 29.91 1013 7 11.265408 0 0
6:35 am 06:35 Cloudy with Light Rain 54 12 54 12 100 100 Calm 29.91 1013 7 11.265408 0 0
6:55 am 06:55 Cloudy with Light Rain 54 12 54 12 100 100 Calm 29.91 1013 3 4.828032 0 0
7:15 am 07:15 Cloudy with Light Rain 54 12 54 12 100 100 Calm 29.94 1014 5 8.04672 0 0
7:35 am 07:35 Cloudy with Light Rain 54 12 54 12 100 100 Calm 29.94 1014 5 8.04672 0 0
7:55 am 07:55 Cloudy with Light Rain 54 12 54 12 100 100 Calm 29.94 1014 5 8.04672 0 0
8:15 am 08:15 Cloudy 54 12 54 12 100 100 SW 3 6 29.94 1014 7 11.265408 0 0
8:35 am 08:35 Cloudy 54 12 54 12 100 100 Calm 29.91 1013 10 16.09344 0 0
8:55 am 08:55 Cloudy with Light Rain 54 12 54 12 100 100 Calm 29.91 1013 7 11.265408 0 0
9:15 am 09:15 Mostly Cloudy 55 13 55 13 100 100 Calm 29.91 1013 10 16.09344 0 0
9:35 am 09:35 Cloudy 59 15 55 13 88 88 W 7 11 29.91 1013 10 16.09344 0 0
9:55 am 09:55 Mostly Cloudy 61 16 55 13 83 83 NW 8 13 29.91 1013 10 16.09344 0 0
10:15 am 10:15 Partly Cloudy 61 16 54 12 77 77 NNW 10 17 29.91 1013 10 16.09344 0 0
10:35 am 10:35 Mostly Cloudy 61 16 54 12 77 77 NW 10 17 29.91 1013 10 16.09344 0 0
10:55 am 10:55 Cloudy 61 16 52 11 72 72 NNW 15 24 29.91 1013 10 16.09344 0 0
11:15 am 11:15 Cloudy 61 16 52 11 72 72 N 14 22 29.91 1013 10 16.09344 0 0
11:35 am 11:35 Mostly Cloudy 63 17 50 10 64 64 NNW 17 28 29.88 1012 10 16.09344 0 0
11:55 am 11:55 Mostly Cloudy 63 17 50 10 64 64 NNW 16 26 29.88 1012 10 16.09344 0 0
12:15 pm 12:15 Mostly Cloudy 63 17 50 10 64 64 NNW 14 22 29.88 1012 10 16.09344 0 0
12:35 pm 12:35 Cloudy 63 17 50 10 64 64 N 20 31 29.88 1012 10 16.09344 0 0
12:55 pm 12:55 Cloudy 63 17 50 10 64 64 N 12 19 29.88 1012 10 16.09344 0 0
1:15 pm 13:15 Cloudy 61 16 48 9 63 63 NNW 22 35 29.88 1012 10 16.09344 0 0
1:35 pm 13:35 Cloudy 59 15 50 10 72 72 NNW 21 33 29.88 1012 10 16.09344 0 0
1:55 pm 13:55 Cloudy 57 14 50 10 77 77 NNW 22 35 29.91 1013 10 16.09344 0 0
2:15 pm 14:15 Cloudy with Rain 54 12 52 11 94 94 NNW 16 26 29.91 1013 5 8.04672 0 0
2:35 pm 14:35 Cloudy with Light Rain 54 12 52 11 94 94 NNW 15 24 29.91 1013 10 16.09344 0 0
2:55 pm 14:55 Cloudy with Light Rain 54 12 52 11 94 94 NNW 10 17 29.91 1013 10 16.09344 0 0
3:15 pm 15:15 Cloudy with Rain 54 12 52 11 94 94 NNW 8 13 29.91 1013 10 16.09344 0 0
3:35 pm 15:35 Cloudy with Light Drizzle 54 12 52 11 94 94 NW 7 11 29.91 1013 10 16.09344 0 0
3:55 pm 15:55 Cloudy 54 12 54 12 100 100 NW 8 13 29.94 1014 10 16.09344 0 0
4:15 pm 16:15 Cloudy with Light Rain 54 12 54 12 100 100 NW 12 19 29.94 1014 10 16.09344 0 0
4:35 pm 16:35 Cloudy with Light Drizzle 54 12 54 12 100 100 NW 7 11 29.94 1014 10 16.09344 0 0
4:55 pm 16:55 Cloudy with Light Rain 54 12 54 12 100 100 NNW 5 7 29.94 1014 7 11.265408 0 0
5:15 pm 17:15 Cloudy 54 12 54 12 100 100 NNW 3 6 29.94 1014 10 16.09344 0 0
5:35 pm 17:35 Cloudy 54 12 54 12 100 100 N 6 9 29.94 1014 10 16.09344 0 0
5:55 pm 17:55 Cloudy 54 12 54 12 100 100 NW 9 15 29.97 1015 10 16.09344 0 0
6:15 pm 18:15 Cloudy 54 12 54 12 100 100 NW 12 19 29.97 1015 10 16.09344 0 0
6:35 pm 18:35 Cloudy 54 12 52 11 94 94 NW 16 26 29.97 1015 10 16.09344 0 0
6:55 pm 18:55 Cloudy 54 12 46 8 77 77 NNW 14 22 29.97 1015 10 16.09344 0 0
7:15 pm 19:15 Cloudy 54 12 46 8 77 77 NW 24 39 30 1016 10 16.09344 0 0
7:35 pm 19:35 Cloudy 54 12 45 7 72 72 NW 23 37 30 1016 10 16.09344 0 0
7:55 pm 19:55 Cloudy 54 12 45 7 72 72 NW 15 24 30 1016 10 16.09344 0 0
8:15 pm 20:15 Cloudy 52 11 45 7 77 77 NNW 15 24 30.03 1017 10 16.09344 0 0
8:35 pm 20:35 Cloudy 52 11 45 7 77 77 NNW 17 28 30.03 1017 10 16.09344 0 0
8:55 pm 20:55 Cloudy 52 11 45 7 77 77 NNW 13 20 30.03 1017 10 16.09344 0 0
9:15 pm 21:15 Cloudy 52 11 43 6 72 72 NNW 22 35 30.03 1017 10 16.09344 0 0
9:35 pm 21:35 Cloudy 52 11 43 6 72 72 NNW 24 39 30.06 1018 10 16.09344 0 0
9:55 pm 21:55 Cloudy 52 11 43 6 72 72 NNW 18 30 30.06 1018 10 16.09344 0 0
10:15 pm 22:15 Cloudy 50 10 41 5 71 71 NNW 18 30 30.09 1019 10 16.09344 0 0
10:35 pm 22:35 Mostly Cloudy 50 10 41 5 71 71 NW 20 31 30.09 1019 10 16.09344 0 0
10:55 pm 22:55 Cloudy 50 10 41 5 71 71 NW 15 24 30.09 1019 10 16.09344 0 0
11:15 pm 23:15 Cloudy 50 10 41 5 71 71 NW 18 30 30.09 1019 10 16.09344 0 0
11:35 pm 23:35 Cloudy 50 10 39 4 67 67 NW 17 28 30.09 1019 10 16.09344 0 0
11:55 pm 23:55 Cloudy 48 9 37 3 66 66 NNW 16 26 30.12 1020 10 16.09344 0 0

Powered by AerisWeather